Regional Weather Roundup
Issued by NWS

Home | Current Version | Previous Version | Graphics & Text | Print | Product List | Glossary On
Versions: 1 2 3 4 5 6 7 8 9 10 11 12 13 14 15 16 17 18 19 20 21 22 23 24 25 26 27 28 29 30 31 32 33 34 35 36 37 38 39 40 41 42 43 44 45 46 47 48 49 50
000
ASUS45 KABQ 270610
RWRNM
NEW MEXICO REGIONAL WEATHER ROUNDUP
NATIONAL WEATHER SERVICE ALBUQUERQUE NM
1200 AM MDT WED MAY 27 2015

NOTE: "FAIR" MEANS FEW OR NO CLOUDS BELOW 12,000 FEET AGL WITH NO
       SIGNIFICANT WEATHER OR OBSTRUCTIONS TO VISION.

      THIS PRODUCT IS RELEASED AS TWO VERSIONS.  ONE VERSION NEAR
      THE TOP OF THE HOUR CONTAINING PRELIMINARY DATA FROM ALBUQUERQUE
      AND OTHER STATIONS.  A FINAL VERSION WITH ADDITIONAL DATA IS
      ISSUED ABOUT 10 MINUTES AFTER THE HOUR.

NMZ501-503-504-510>518-270700-
NORTHWEST PLATEAU/NORTHCENTRAL MOUNTAINS

CITY           SKY/WX    TMP DP  RH WIND       PRES   REMARKS
FARMINGTON     PTCLDY    53  44  71 CALM      30.11R
6HR MIN TEMP:  53; 6HR MAX TEMP:  74; 6HR PCP: TRACE;

LOS ALAMOS     PTCLDY    54  38  55 SW8       30.23S
SANTA FE       CLOUDY    56  44  64 CALM      30.18R
6HR MIN TEMP:  54; 6HR MAX TEMP:  71; 6HR PCP: TRACE;

TAOS           MOCLDY    52  30  43 S5        30.21S
ANGEL FIRE     FAIR      42  36  81 CALM      30.28S

$$
NMZ402-403-502-505>509-270700-
WESTCENTRAL MOUNTAINS/SOUTHWEST MOUNTAINS

CITY           SKY/WX    TMP DP  RH WIND       PRES   REMARKS
GALLUP         PTCLDY    52  36  54 CALM      30.16S
6HR MIN TEMP:  49; 6HR MAX TEMP:  71;

GRANTS         CLOUDY    53  33  46 CALM      30.18S
SILVER CITY      N/A     55  23  28 N10       30.12S

$$
NMZ407-409-411-412-270700-
SOUTHERN DESERTS

CITY           SKY/WX    TMP DP  RH WIND       PRES   REMARKS
LORDSBURG      FAIR      68  18  14 CALM      30.03S
DEMING         CLEAR     61  19  19 CALM      30.04R
6HR MIN TEMP:  60; 6HR MAX TEMP:  86;

LAS CRUCES     CLEAR     62  25  24 SW5       30.05S
HOLLOMAN AFB   PTCLDY    68  34  28 SE6       30.00F
ALAMOGORDO     PTCLDY    66  28  24 SE5       30.03S
T OR C         PTCLDY    69  24  18 W9        30.05S
6HR MIN TEMP:  68; 6HR MAX TEMP:  82;


$$
NMZ519>523-270700-
CENTRAL VALLEYS/CENTRAL HIGHLANDS

CITY           SKY/WX    TMP DP  RH WIND       PRES   REMARKS
ALBUQUERQUE    CLOUDY    64  45  49 E7        30.11F
6HR MIN TEMP:  63; 6HR MAX TEMP:  76;

DOUBLE EAGLE   MOCLDY    57  44  61 NW7       30.15S
MORIARTY ARPT  MOCLDY    57  42  57 SW7       30.18F
6HR MIN TEMP:  56; 6HR MAX TEMP:  72;

CLINES CORNERS CLOUDY    52  42  69 SW6       30.20F
6HR MIN TEMP:  52; 6HR MAX TEMP:  69; 6HR PCP: TRACE;

BELEN          MOCLDY    64  50  61 N3        30.09F
6HR MIN TEMP:  63; 6HR MAX TEMP:  77; 6HR PCP:  0.01;

SOCORRO        FAIR      65  39  39 NW5       30.06F
6HR MIN TEMP:  65; 6HR MAX TEMP:  80;


$$
NMZ524>526-539-540-270700-
SOUTHCENTRAL MOUNTAINS

CITY           SKY/WX    TMP DP  RH WIND       PRES   REMARKS
RUIDOSO        PTCLDY    54  32  43 S7        30.22S

$$
NMZ527>531-270700-
NORTHEAST HIGHLANDS/NORTHEAST PLAINS

CITY           SKY/WX    TMP DP  RH WIND       PRES   REMARKS
LAS VEGAS      MOCLDY    52  41  66 NE3       30.19S
6HR MIN TEMP:  49; 6HR MAX TEMP:  66;

RATON          PTCLDY    53  45  74 NE8       30.16R
6HR MIN TEMP:  50; 6HR MAX TEMP:  64; 6HR PCP: TRACE;

CLAYTON        CLOUDY    59  49  69 N7        30.14R
6HR MIN TEMP:  56; 6HR MAX TEMP:  70;


$$
NMZ532>537-270700-
EASTCENTRAL PLAINS

CITY           SKY/WX    TMP DP  RH WIND       PRES   REMARKS
TUCUMCARI      CLEAR     62  51  67 S6        30.04R
6HR MIN TEMP:  61; 6HR MAX TEMP:  79;

CANNON AFB     CLEAR     60  50  69 E6        30.06R
6HR MIN TEMP:  60; 6HR MAX TEMP:  79;

CLOVIS AIRPORT CLEAR     57  50  77 E7        30.03F

$$
NMZ028-029-538-270700-
SOUTHEAST PLAINS

CITY           SKY/WX    TMP DP  RH WIND       PRES   REMARKS
ROSWELL        CLEAR     61  45  55 SE5       30.00R
6HR MIN TEMP:  61; 6HR MAX TEMP:  86;

ARTESIA        CLEAR     66  34  30 NE5       30.02R
CARLSBAD       PTCLDY    67  39  35 S6        29.99R
6HR MIN TEMP:  66; 6HR MAX TEMP:  90;

HOBBS          CLEAR     63  41  45 E3        30.04S


$$



USA.gov is the U.S. government's official web portal to all federal, state and local government web resources and services.